loading
|

STARLINK-32289, 60737

Orbit data source: Space-Track

STARLINK-32289, 60737 is a payload satellite owned by SpaceX/Seattle (US) in LEO that was launched on Wed, 28 Aug 2024 UTC via an FALCON 9 launch vehicle from the Air Force Eastern Test Range (AFETR). Payloads include a variety of satellites, spacecraft, and rockets equipped with specific instruments for various scientific and technological missions. These include communications satellites like Starlink; space stations such as the ISS; scientific satellites like the Hubble; Earth observation satellites from companies like Planet Labs, Umbra, and HawkEye 360; GPS; miniature CubeSats for education and research; and military/defense satellites.

Loading next visibility...
Loading greatness...
STARLINK-32289 details
Identifier
60737, 2024-152T
Orbit
LEO
Last TLE update10 hours ago
Origin
Flag of USSpaceX/Seattle (US)
ManufacturerSpaceX/Seattle
Mission statusOperational
MissionUnknown
Bus & MotorSTARLINK V2M, Unknown motor
Mass750 kg wet, ~700 kg dry
Launch date (UTC)
2024-08-28 (3 weeks ago)
Launch vehicle
FALCON 9
Launch site
Air Force Eastern Test Range (AFETR)
Object type
Payload
Rocket body
Debris
Radar Cross SectionLarge (>1 m²)

Expand to show TLE details & history

TLE from 10 hours ago
0 STARLINK-32289
1 60737U 24152T   24258.91667824 -.01676155  00000-0 -17560-1 0  9994
2 60737  53.1542 262.5248 0000682  97.2309 284.8332 15.66949074  4027
Epoch: 2024-09-14T22:00Z
Definitive object data (Epoch: 2024-09-14T22:00:00.999Z)
Latitude17.51685°
Longitude-48.24448°
Altitude367.828 km
Speed7.692 km/s
True Right ascension18h 24m 30s
True Declination17° 24' 46"
Sunlit
Object was in daylight at TLE epoch
Predictive object data (real-time)
Latitude19.45951°
Longitude100.89424°
Altitude372.004 km
Speed7.69 km/s
Apparent Right ascension07h 30m 55s
Apparent Declination-17° 48' 27"
Sunlit
Object is in daylight
Predictive observer data (real-time)
Local Sidereal Time00:23:59
Azimuth93.684° ESE
Elevation-23.981°
Doppler factor1
Orbital elements
Apogee368.36 km
Perigee367.44 km
Semi-major axis6,746.037 km
Eccentricity0.0000682
Inclination53.1542°
RAAN262.5248°
Arg. of periapsis97.2309°
True anomaly284.82565°
Mean anomaly284.8332°
Eccentric anomaly284.82942°
Mean motion3.91715 °/min
BSTAR-0.01756
Period91.9 mins
No data available

STARLINK-32289 Visibility forecast

Observer location: 39.9160978°, -105.1181434

STARLINK-32289 is not visible in the next 10 days
Span
Click to sort rows by Start time (UTC) header in descending order
Start Az.
Max El. time (UTC)
Max El. Az.
Max El.
End time (UTC)
End Az.